Denver, CO

11:42 PM MDT on October 18, 2017 (GMT -0600)
Front Range

Weather History for KFTG - April, 2012

Change the Weather History Date:

Thursday, April 26, 2012

  Actual Average (KBKF) Record (KBKF)
Temperature  
Mean Temperature 62 °F -  
Max Temperature 75 °F 59 °F 77 °F (2012)
Min Temperature 50 °F 36 °F 27 °F (2017)
Degree Days  
Heating Degree Days 2    
Growing Degree Days 12 (Base 50)    
Moisture  
Dew Point 41 °F    
Average Humidity 49    
Maximum Humidity 94    
Minimum Humidity 24    
Precipitation  
Precipitation 0.00 in - - ()
Sea Level Pressure  
Sea Level Pressure 29.92 in    
Wind  
Wind Speed 9 mph (SSE)    
Max Wind Speed 18 mph    
Max Gust Speed 41 mph    
Visibility 10 miles    
Events Rain , Thunderstorm    
Averages and records for this station are not official NWS values.
T = Trace of Precipitation, MM = Missing Value Source: NWS Daily Summary

Daily Weather History Graph

Daily Weather History Graph

Search for Another Location

Airport or City:

Trip Planner

Search our weather history database for the weather conditions in past years. The results will help you decide how hot, cold, wet, or windy it might be!

Date:

Astronomy

Apr. 26, 2012 Rise Set
Actual Time 6:04 AM MDT 7:48 PM MDT
Civil Twilight 5:35 AM MDT 8:16 PM MDT
Nautical Twilight 5:00 AM MDT 8:51 PM MDT
Astronomical Twilight 4:23 AM MDT 9:29 PM MDT
Moon 9:46 AM MDT (4/26) No Moon Set
Length of Visible Light 14h 41m
Length of Day
13h 43m
Waxing Crescent, 25% of the Moon is Illuminated
Apr 26
Waxing Crescent
Apr 29
First Quarter
May 5
Full
May 12
Last Quarter
May 20
New

Hourly Weather History & Observations

Time (MDT) Temp. Dew Point Humidity Pressure Visibility Wind Dir Wind Speed Gust Speed Precip Events Conditions
12:02 AM 57.2 °F 37.4 °F 48% 30.05 in 10.0 mi South 5.8 mph - N/A   Clear
12:22 AM 59.0 °F 37.4 °F 45% 30.05 in 10.0 mi South 6.9 mph - N/A   Scattered Clouds
12:42 AM 59.0 °F 37.4 °F 45% 30.04 in 10.0 mi SSE 6.9 mph - N/A   Mostly Cloudy
1:02 AM 59.0 °F 37.4 °F 45% 30.04 in 10.0 mi SSE 6.9 mph - N/A   Overcast
1:42 AM 57.2 °F 39.2 °F 51% 30.04 in 10.0 mi SSE 8.1 mph - N/A   Clear
2:02 AM 57.2 °F 39.2 °F 51% 30.03 in 10.0 mi SSE 8.1 mph - N/A   Scattered Clouds
2:22 AM 59.0 °F 37.4 °F 45% 30.03 in 10.0 mi SSE 9.2 mph - N/A   Overcast
2:41 AM 59.0 °F 37.4 °F 45% 30.03 in 10.0 mi South 5.8 mph - N/A   Overcast
3:02 AM 57.2 °F 37.4 °F 48% 30.03 in 10.0 mi WSW 8.1 mph - N/A   Overcast
3:21 AM 60.8 °F 37.4 °F 42% 30.04 in 10.0 mi WSW 11.5 mph - N/A Thunderstorm Overcast
3:42 AM 60.8 °F 37.4 °F 42% 30.03 in 10.0 mi SW 5.8 mph - N/A   Mostly Cloudy
4:02 AM 59.0 °F 37.4 °F 45% 30.04 in 10.0 mi SSW 9.2 mph - N/A   Scattered Clouds
4:22 AM 59.0 °F 39.2 °F 48% 30.03 in 10.0 mi South 5.8 mph - N/A   Clear
4:42 AM 59.0 °F 41.0 °F 51% 30.03 in 10.0 mi SSW 3.5 mph - N/A   Mostly Cloudy
5:02 AM 53.6 °F 41.0 °F 62% 30.04 in 10.0 mi WNW 5.8 mph - N/A   Scattered Clouds
5:22 AM 57.2 °F 41.0 °F 55% 30.03 in 10.0 mi WSW 5.8 mph - N/A   Scattered Clouds
5:42 AM 53.6 °F 41.0 °F 62% 30.04 in 10.0 mi WSW 9.2 mph - N/A   Scattered Clouds
6:02 AM 55.4 °F 41.0 °F 58% 30.04 in 10.0 mi South 4.6 mph - N/A   Mostly Cloudy
6:22 AM 53.6 °F 41.0 °F 62% 30.04 in 10.0 mi SE 5.8 mph - N/A Thunderstorm Mostly Cloudy
6:42 AM 53.6 °F 42.8 °F 67% 30.04 in 10.0 mi SE 8.1 mph - N/A   Scattered Clouds
7:02 AM 51.8 °F 42.8 °F 71% 30.04 in 10.0 mi SE 10.4 mph - N/A   Scattered Clouds
7:19 AM 53.6 °F 42.8 °F 67% 30.03 in 10.0 mi SSE 12.7 mph - N/A   Scattered Clouds
7:42 AM 55.4 °F 44.6 °F 67% 30.03 in 10.0 mi South 8.1 mph - N/A   Clear
7:55 AM 59.0 °F 44.6 °F 59% 30.07 in 50.0 mi SSE 10.4 mph - N/A   Mostly Cloudy
8:02 AM 59.0 °F 42.8 °F 55% 30.03 in 10.0 mi SSE 10.4 mph - N/A   Clear
8:20 AM 59.0 °F 44.6 °F 59% 30.03 in 10.0 mi South 6.9 mph - N/A   Clear
8:42 AM 59.0 °F 44.6 °F 59% 30.02 in 10.0 mi South 10.4 mph - N/A   Clear
8:55 AM 62.6 °F 42.8 °F 48% 30.01 in 50.0 mi South 12.7 mph - N/A   Mostly Cloudy
9:02 AM 62.6 °F 42.8 °F 48% 30.01 in 10.0 mi SSW 15.0 mph - N/A   Clear
9:22 AM 62.6 °F 39.2 °F 42% 30.01 in 10.0 mi South 10.4 mph - N/A   Clear
9:42 AM 64.4 °F 37.4 °F 37% 30.01 in 10.0 mi SSW 9.2 mph - N/A   Clear
10:00 AM 66.2 °F 39.2 °F 37% 30.01 in 50.0 mi SE 6.9 mph - N/A   Mostly Cloudy
10:01 AM 64.4 °F 37.4 °F 37% 30.01 in 10.0 mi South 6.9 mph - N/A   Clear
10:22 AM 68.0 °F 37.4 °F 33% 30.01 in 10.0 mi SSW 4.6 mph - N/A   Clear
10:42 AM 69.8 °F 35.6 °F 28% 30.00 in 10.0 mi SE 4.6 mph - N/A   Clear
11:02 AM 71.6 °F 39.2 °F 31% 29.99 in 10.0 mi SE 9.2 mph - N/A   Clear
11:22 AM 71.6 °F 39.2 °F 31% 29.98 in 10.0 mi SSE 11.5 mph 18.4 mph N/A   Clear
11:42 AM 73.4 °F 37.4 °F 27% 29.96 in 10.0 mi ESE 11.5 mph 16.1 mph N/A   Clear
12:02 PM 73.4 °F 35.6 °F 25% 29.95 in 10.0 mi SE 9.2 mph 17.3 mph N/A   Clear
12:22 PM 75.2 °F 35.6 °F 24% 29.93 in 10.0 mi ESE 10.4 mph 20.7 mph N/A   Clear
12:42 PM 75.2 °F 35.6 °F 24% 29.92 in 10.0 mi SE 12.7 mph 18.4 mph N/A   Clear
12:50 PM 75.2 °F 37.4 °F 25% 29.91 in 50.0 mi ESE 12.7 mph 18.4 mph N/A   Mostly Cloudy
1:02 PM 73.4 °F 35.6 °F 25% 29.91 in 10.0 mi SE 10.4 mph 18.4 mph N/A   Scattered Clouds
1:22 PM 75.2 °F 35.6 °F 24% 29.90 in 10.0 mi SSE 16.1 mph 20.7 mph N/A   Mostly Cloudy
1:42 PM 66.2 °F 42.8 °F 43% 29.92 in 7.0 mi SE 17.3 mph 41.4 mph N/A Rain , Thunderstorm Light Thunderstorms and Rain
2:02 PM 60.8 °F 44.6 °F 55% 29.91 in 7.0 mi West 16.1 mph 29.9 mph N/A Rain , Thunderstorm Heavy Thunderstorms and Rain
2:21 PM 64.4 °F 42.8 °F 45% 29.89 in 10.0 mi North 6.9 mph - N/A Rain Light Rain
2:42 PM 62.6 °F 50.0 °F 63% 29.88 in 7.0 mi NE 11.5 mph - N/A Rain Light Rain
3:03 PM 64.4 °F 51.8 °F 64% 29.85 in 10.0 mi NE 15.0 mph - N/A   Mostly Cloudy
3:23 PM 62.6 °F 50.0 °F 63% 29.83 in 10.0 mi NE 13.8 mph - N/A   Clear
3:43 PM 64.4 °F 50.0 °F 59% 29.82 in 10.0 mi ENE 15.0 mph - N/A   Scattered Clouds
4:02 PM 64.4 °F 51.8 °F 64% 29.80 in 10.0 mi ENE 11.5 mph - N/A Rain Light Rain
4:23 PM 62.6 °F 50.0 °F 63% 29.79 in 7.0 mi ENE 11.5 mph - N/A   Overcast
4:42 PM 64.4 °F 50.0 °F 59% 29.78 in 10.0 mi NE 10.4 mph - N/A   Mostly Cloudy
5:03 PM 69.8 °F 39.2 °F 33% 29.76 in 10.0 mi South 18.4 mph 27.6 mph N/A   Mostly Cloudy
5:23 PM 71.6 °F 37.4 °F 29% 29.76 in 10.0 mi South 18.4 mph 31.1 mph N/A   Mostly Cloudy
5:43 PM 69.8 °F 37.4 °F 31% 29.76 in 10.0 mi South 12.7 mph 25.3 mph N/A Thunderstorm Scattered Clouds
6:03 PM 69.8 °F 37.4 °F 31% 29.76 in 10.0 mi South 12.7 mph 21.9 mph N/A   Mostly Cloudy
6:22 PM 69.8 °F 37.4 °F 31% 29.75 in 10.0 mi South 15.0 mph 20.7 mph N/A   Overcast
6:43 PM 68.0 °F 35.6 °F 30% 29.75 in 10.0 mi South 17.3 mph 21.9 mph N/A   Mostly Cloudy
7:03 PM 68.0 °F 35.6 °F 30% 29.75 in 10.0 mi SSW 17.3 mph - N/A   Scattered Clouds
7:23 PM 66.2 °F 42.8 °F 43% 29.73 in 10.0 mi West 12.7 mph - N/A   Mostly Cloudy
7:42 PM 62.6 °F 44.6 °F 52% 29.72 in 10.0 mi WNW 6.9 mph - N/A   Overcast
8:02 PM 64.4 °F 41.0 °F 42% 29.74 in 10.0 mi NNE 5.8 mph 31.1 mph N/A   Mostly Cloudy
8:23 PM 64.4 °F 42.8 °F 45% 29.74 in 10.0 mi SSE 12.7 mph - N/A Thunderstorm Thunderstorm
8:43 PM 60.8 °F 41.0 °F 48% 29.73 in 10.0 mi South 16.1 mph 21.9 mph N/A   Mostly Cloudy
9:03 PM 60.8 °F 42.8 °F 52% 29.75 in 10.0 mi SSE 18.4 mph 25.3 mph N/A Thunderstorm Mostly Cloudy
9:23 PM 59.0 °F 42.8 °F 55% 29.74 in 10.0 mi SSE 15.0 mph 24.2 mph N/A Thunderstorm Thunderstorm
9:42 PM 57.2 °F 44.6 °F 63% 29.74 in 10.0 mi SSE 17.3 mph - N/A Thunderstorm Thunderstorm
10:22 PM 50.0 °F 46.4 °F 87% 29.78 in 2.5 mi SW 6.9 mph 34.5 mph N/A Rain , Thunderstorm Thunderstorms and Rain
10:42 PM 50.0 °F 46.4 °F 87% 29.77 in 10.0 mi Calm Calm - N/A Rain , Thunderstorm Light Thunderstorms and Rain
11:02 PM 50.0 °F 46.4 °F 87% 29.76 in 4.0 mi South 4.6 mph - N/A Rain , Thunderstorm Heavy Thunderstorms and Rain
11:22 PM 50.0 °F 46.4 °F 87% 29.70 in 10.0 mi ESE 8.1 mph - N/A Rain , Thunderstorm Rain
11:42 PM 50.0 °F 48.2 °F 94% 29.70 in 10.0 mi SE 10.4 mph - N/A Rain Light Rain